Year,Month,Day,Hour,Minute,Value (Times are PST for temperature in C)
2019,10,30,00,00,-0.50
2019,10,30,00,01,-0.40
2019,10,30,00,02,-0.30
2019,10,30,00,03,-0.20
2019,10,30,00,04,-0.20
2019,10,30,00,05,-0.10
2019,10,30,00,06,-0.10
2019,10,30,00,07,-0.10
2019,10,30,00,08,-0.10
2019,10,30,00,09,-0.10
2019,10,30,00,10,-0.10
2019,10,30,00,11,-0.20
2019,10,30,00,12,-0.20
2019,10,30,00,13,-0.20
2019,10,30,00,14,-0.20
2019,10,30,00,15,-0.30
2019,10,30,00,16,-0.30
2019,10,30,00,17,-0.30
2019,10,30,00,18,-0.30
2019,10,30,00,19,-0.30
2019,10,30,00,20,-0.30
2019,10,30,00,21,-0.40
2019,10,30,00,22,-0.50
2019,10,30,00,23,-0.50
2019,10,30,00,24,-0.60
2019,10,30,00,25,-0.70
2019,10,30,00,26,-0.70
2019,10,30,00,27,-0.70
2019,10,30,00,28,-0.80
2019,10,30,00,29,-0.80
2019,10,30,00,30,-0.90
2019,10,30,00,31,-0.90
2019,10,30,00,32,-1.00
2019,10,30,00,33,-1.00
2019,10,30,00,34,-1.10
2019,10,30,00,35,-1.10
2019,10,30,00,36,-1.10
2019,10,30,00,37,-1.10
2019,10,30,00,38,-1.00
2019,10,30,00,39,-1.00
2019,10,30,00,40,-1.00
2019,10,30,00,41,-0.90
2019,10,30,00,42,-0.90
2019,10,30,00,43,-0.80
2019,10,30,00,44,-0.80
2019,10,30,00,45,-0.90
2019,10,30,00,46,-0.90
2019,10,30,00,47,-0.90
2019,10,30,00,48,-0.90
2019,10,30,00,49,-1.00
2019,10,30,00,50,-1.00
2019,10,30,00,51,-1.10
2019,10,30,00,52,-1.10
2019,10,30,00,53,-1.10
2019,10,30,00,54,-1.10
2019,10,30,00,55,-1.10
2019,10,30,00,56,-1.20
2019,10,30,00,57,-1.20
2019,10,30,00,58,-1.20
2019,10,30,00,59,-1.20
2019,10,30,01,00,-1.10
2019,10,30,01,01,-1.10
2019,10,30,01,02,-1.10
2019,10,30,01,03,-1.10
2019,10,30,01,04,-1.10
2019,10,30,01,05,-1.10
2019,10,30,01,06,-1.10
2019,10,30,01,07,-1.20
2019,10,30,01,08,-1.20
2019,10,30,01,09,-1.20
2019,10,30,01,10,-1.30
2019,10,30,01,11,-1.30
2019,10,30,01,12,-1.30
2019,10,30,01,13,-1.40
2019,10,30,01,14,-1.40
2019,10,30,01,15,-1.40
2019,10,30,01,16,-1.40
2019,10,30,01,17,-1.40
2019,10,30,01,18,-1.50
2019,10,30,01,19,-1.50
2019,10,30,01,20,-1.50
2019,10,30,01,21,-1.60
2019,10,30,01,22,-1.60
2019,10,30,01,23,-1.60
2019,10,30,01,24,-1.60
2019,10,30,01,25,-1.60
2019,10,30,01,26,-1.70
2019,10,30,01,27,-1.60
2019,10,30,01,28,-1.60
2019,10,30,01,29,-1.50
2019,10,30,01,30,-1.50
2019,10,30,01,31,-1.40
2019,10,30,01,32,-1.40
2019,10,30,01,33,-1.40
2019,10,30,01,34,-1.40
2019,10,30,01,35,-1.30
2019,10,30,01,36,-1.30
2019,10,30,01,37,-1.20
2019,10,30,01,38,-1.20
2019,10,30,01,39,-1.10
2019,10,30,01,40,-1.00
2019,10,30,01,41,-1.00
2019,10,30,01,42,-0.90
2019,10,30,01,43,-0.90
2019,10,30,01,44,-0.80
2019,10,30,01,45,-0.80
2019,10,30,01,46,-0.80
2019,10,30,01,47,-0.70
2019,10,30,01,48,-0.70
2019,10,30,01,49,-0.70
2019,10,30,01,50,-0.70
2019,10,30,01,51,-0.70
2019,10,30,01,52,-0.70
2019,10,30,01,53,-0.70
2019,10,30,01,54,-0.80
2019,10,30,01,55,-0.80
2019,10,30,01,56,-0.80
2019,10,30,01,57,-0.90
2019,10,30,01,58,-0.90
2019,10,30,01,59,-0.90
2019,10,30,02,00,-0.90
2019,10,30,02,01,-0.90
2019,10,30,02,02,-0.90
2019,10,30,02,03,-0.80
2019,10,30,02,04,-0.80
2019,10,30,02,05,-0.80
2019,10,30,02,06,-0.80
2019,10,30,02,07,-0.80
2019,10,30,02,08,-0.80
2019,10,30,02,09,-0.70
2019,10,30,02,10,-0.70
2019,10,30,02,11,-0.60
2019,10,30,02,12,-0.60
2019,10,30,02,13,-0.60
2019,10,30,02,14,-0.60
2019,10,30,02,15,-0.60
2019,10,30,02,16,-0.70
2019,10,30,02,17,-0.70
2019,10,30,02,18,-0.80
2019,10,30,02,19,-0.80
2019,10,30,02,20,-0.80
2019,10,30,02,21,-0.80
2019,10,30,02,22,-0.80
2019,10,30,02,23,-0.80
2019,10,30,02,24,-0.70
2019,10,30,02,25,-0.70
2019,10,30,02,26,-0.70
2019,10,30,02,27,-0.60
2019,10,30,02,28,-0.50
2019,10,30,02,29,-0.50
2019,10,30,02,30,-0.40
2019,10,30,02,31,-0.40
2019,10,30,02,32,-0.40
2019,10,30,02,33,-0.40
2019,10,30,02,34,-0.50
2019,10,30,02,35,-0.50
2019,10,30,02,36,-0.60
2019,10,30,02,37,-0.60
2019,10,30,02,38,-0.70
2019,10,30,02,39,-0.70
2019,10,30,02,40,-0.70
2019,10,30,02,41,-0.70
2019,10,30,02,42,-0.70
2019,10,30,02,43,-0.70
2019,10,30,02,44,-0.70
2019,10,30,02,45,-0.70
2019,10,30,02,46,-0.70
2019,10,30,02,47,-0.70
2019,10,30,02,48,-0.70
2019,10,30,02,49,-0.70
2019,10,30,02,50,-0.70
2019,10,30,02,51,-0.70
2019,10,30,02,52,-0.70
2019,10,30,02,53,-0.70
2019,10,30,02,54,-0.70
2019,10,30,02,55,-0.70
2019,10,30,02,56,-0.70
2019,10,30,02,57,-0.60
2019,10,30,02,58,-0.50
2019,10,30,02,59,-0.40
2019,10,30,03,00,-0.40
2019,10,30,03,01,-0.30
2019,10,30,03,02,-0.20
2019,10,30,03,03,-0.10
2019,10,30,03,04,0.00
2019,10,30,03,05,0.10
2019,10,30,03,06,0.20
2019,10,30,03,07,0.30
2019,10,30,03,08,0.30
2019,10,30,03,09,0.50
2019,10,30,03,10,0.50
2019,10,30,03,11,0.50
2019,10,30,03,12,0.50
2019,10,30,03,13,0.40
2019,10,30,03,14,0.40
2019,10,30,03,15,0.30
2019,10,30,03,16,0.30
2019,10,30,03,17,0.30
2019,10,30,03,18,0.30
2019,10,30,03,19,0.30
2019,10,30,03,20,0.30
2019,10,30,03,21,0.40
2019,10,30,03,22,0.50
2019,10,30,03,23,0.50
2019,10,30,03,24,0.60
2019,10,30,03,25,0.60
2019,10,30,03,26,0.70
2019,10,30,03,27,0.70
2019,10,30,03,28,0.80
2019,10,30,03,29,0.80
2019,10,30,03,30,0.80
2019,10,30,03,31,0.80
2019,10,30,03,32,0.80
2019,10,30,03,33,0.70
2019,10,30,03,34,0.60
2019,10,30,03,35,0.50
2019,10,30,03,36,0.30
2019,10,30,03,37,0.20
2019,10,30,03,38,0.10
2019,10,30,03,39,0.00
2019,10,30,03,40,-0.20
2019,10,30,03,41,-0.30
2019,10,30,03,42,-0.40
2019,10,30,03,43,-0.40
2019,10,30,03,44,-0.50
2019,10,30,03,45,-0.50
2019,10,30,03,46,-0.60
2019,10,30,03,47,-0.60
2019,10,30,03,48,-0.60
2019,10,30,03,49,-0.70
2019,10,30,03,50,-0.70
2019,10,30,03,51,-0.70
2019,10,30,03,52,-0.70
2019,10,30,03,53,-0.70
2019,10,30,03,54,-0.80
2019,10,30,03,55,-0.80
2019,10,30,03,56,-0.90
2019,10,30,03,57,-1.00
2019,10,30,03,58,-1.10
2019,10,30,03,59,-1.20
2019,10,30,04,00,-1.30
2019,10,30,04,01,-1.30
2019,10,30,04,02,-1.50
2019,10,30,04,03,-1.50
2019,10,30,04,04,-1.60
2019,10,30,04,05,-1.70
2019,10,30,04,06,-1.80
2019,10,30,04,07,-1.80
2019,10,30,04,08,-1.80
2019,10,30,04,09,-1.90
2019,10,30,04,10,-1.90
2019,10,30,04,11,-1.90
2019,10,30,04,12,-2.00
2019,10,30,04,13,-2.00
2019,10,30,04,14,-2.00
2019,10,30,04,15,-2.10
2019,10,30,04,16,-2.10
2019,10,30,04,17,-2.10
2019,10,30,04,18,-2.10
2019,10,30,04,19,-2.10
2019,10,30,04,20,-2.20
2019,10,30,04,21,-2.20
2019,10,30,04,22,-2.20
2019,10,30,04,23,-2.20
2019,10,30,04,24,-2.20
2019,10,30,04,25,-2.30
2019,10,30,04,26,-2.30
2019,10,30,04,27,-2.30
2019,10,30,04,28,-2.30
2019,10,30,04,29,-2.30
2019,10,30,04,30,-2.30
2019,10,30,04,31,-2.30
2019,10,30,04,32,-2.30
2019,10,30,04,33,-2.30
2019,10,30,04,34,-2.30
2019,10,30,04,35,-2.30
2019,10,30,04,36,-2.30
2019,10,30,04,37,-2.30
2019,10,30,04,38,-2.30
2019,10,30,04,39,-2.30
2019,10,30,04,40,-2.30
2019,10,30,04,41,-2.30
2019,10,30,04,42,-2.30
2019,10,30,04,43,-2.30
2019,10,30,04,44,-2.30
2019,10,30,04,45,-2.30
2019,10,30,04,46,-2.30
2019,10,30,04,47,-2.30
2019,10,30,04,48,-2.30
2019,10,30,04,49,-2.30
2019,10,30,04,50,-2.30
2019,10,30,04,51,-2.30
2019,10,30,04,52,-2.30
2019,10,30,04,53,-2.20
2019,10,30,04,54,-2.20
2019,10,30,04,55,-2.20
2019,10,30,04,56,-2.20
2019,10,30,04,57,-2.20
2019,10,30,04,58,-2.30
2019,10,30,04,59,-2.30
2019,10,30,05,00,-2.30
2019,10,30,05,01,-2.30
2019,10,30,05,02,-2.30
2019,10,30,05,03,-2.30
2019,10,30,05,04,-2.30
2019,10,30,05,05,-2.30
2019,10,30,05,06,-2.30
2019,10,30,05,07,-2.30
2019,10,30,05,08,-2.30
2019,10,30,05,09,-2.30
2019,10,30,05,10,-2.30
2019,10,30,05,11,-2.30
2019,10,30,05,12,-2.30
2019,10,30,05,13,-2.30
2019,10,30,05,14,-2.20
2019,10,30,05,15,-2.20
2019,10,30,05,16,-2.20
2019,10,30,05,17,-2.10
2019,10,30,05,18,-2.10
2019,10,30,05,19,-2.00
2019,10,30,05,20,-2.00
2019,10,30,05,21,-1.90
2019,10,30,05,22,-1.90
2019,10,30,05,23,-1.90
2019,10,30,05,24,-1.90
2019,10,30,05,25,-1.80
2019,10,30,05,26,-1.80
2019,10,30,05,27,-1.70
2019,10,30,05,28,-1.70
2019,10,30,05,29,-1.70
2019,10,30,05,30,-1.70
2019,10,30,05,31,-1.70
2019,10,30,05,32,-1.70
2019,10,30,05,33,-1.70
2019,10,30,05,34,-1.70
2019,10,30,05,35,-1.80
2019,10,30,05,36,-1.80
2019,10,30,05,37,-1.80
2019,10,30,05,38,-1.80
2019,10,30,05,39,-1.90
2019,10,30,05,40,-1.90
2019,10,30,05,41,-1.90
2019,10,30,05,42,-1.90
2019,10,30,05,43,-1.90
2019,10,30,05,44,-2.00
2019,10,30,05,45,-2.00
2019,10,30,05,46,-2.00
2019,10,30,05,47,-1.90
2019,10,30,05,48,-1.90
2019,10,30,05,49,-1.90
2019,10,30,05,50,-1.90
2019,10,30,05,51,-1.80
2019,10,30,05,52,-1.80
2019,10,30,05,53,-1.80
2019,10,30,05,54,-1.80
2019,10,30,05,55,-1.80
2019,10,30,05,56,-1.80
2019,10,30,05,57,-1.80
2019,10,30,05,58,-1.80
2019,10,30,05,59,-1.80
2019,10,30,06,00,-1.70
2019,10,30,06,01,-1.70
2019,10,30,06,02,-1.70
2019,10,30,06,03,-1.70
2019,10,30,06,04,-1.70
2019,10,30,06,05,-1.70
2019,10,30,06,06,-1.70
2019,10,30,06,07,-1.70
2019,10,30,06,08,-1.70
2019,10,30,06,09,-1.60
2019,10,30,06,10,-1.60
2019,10,30,06,11,-1.60
2019,10,30,06,12,-1.60
2019,10,30,06,13,-1.50
2019,10,30,06,14,-1.50
2019,10,30,06,15,-1.40
2019,10,30,06,16,-1.40
2019,10,30,06,17,-1.30
2019,10,30,06,18,-1.20
2019,10,30,06,19,-1.10
2019,10,30,06,20,-1.10
2019,10,30,06,21,-1.00
2019,10,30,06,22,-1.00
2019,10,30,06,23,-1.00
2019,10,30,06,24,-1.10
2019,10,30,06,25,-1.10
2019,10,30,06,26,-1.10
2019,10,30,06,27,-1.20
2019,10,30,06,28,-1.20
2019,10,30,06,29,-1.30
2019,10,30,06,30,-1.30
2019,10,30,06,31,-1.30
2019,10,30,06,32,-1.40
2019,10,30,06,33,-1.40
2019,10,30,06,34,-1.40
2019,10,30,06,35,-1.40
2019,10,30,06,36,-1.50
2019,10,30,06,37,-1.50
2019,10,30,06,38,-1.60
2019,10,30,06,39,-1.60
2019,10,30,06,40,-1.60
2019,10,30,06,41,-1.60
2019,10,30,06,42,-1.60
2019,10,30,06,43,-1.60
2019,10,30,06,44,-1.60
2019,10,30,06,45,-1.60
2019,10,30,06,46,-1.60
2019,10,30,06,47,-1.60
2019,10,30,06,48,-1.50
2019,10,30,06,49,-1.50
2019,10,30,06,50,-1.50
2019,10,30,06,51,-1.50
2019,10,30,06,52,-1.50
2019,10,30,06,53,-1.50
2019,10,30,06,54,-1.60
2019,10,30,06,55,-1.60
2019,10,30,06,56,-1.60
2019,10,30,06,57,-1.60
2019,10,30,06,58,-1.70
2019,10,30,06,59,-1.70
2019,10,30,07,00,-1.70
2019,10,30,07,01,-1.80
2019,10,30,07,02,-1.80
2019,10,30,07,03,-1.80
2019,10,30,07,04,-1.90
2019,10,30,07,05,-1.90
2019,10,30,07,06,-2.00
2019,10,30,07,07,-2.00
2019,10,30,07,08,-2.10
2019,10,30,07,09,-2.10
2019,10,30,07,10,-2.10
2019,10,30,07,11,-2.10
2019,10,30,07,12,-2.20
2019,10,30,07,13,-2.20
2019,10,30,07,14,-2.20
2019,10,30,07,15,-2.20
2019,10,30,07,16,-2.30
2019,10,30,07,17,-2.30
2019,10,30,07,18,-2.30
2019,10,30,07,19,-2.30
2019,10,30,07,20,-2.30
2019,10,30,07,21,-2.30
2019,10,30,07,22,-2.30
2019,10,30,07,23,-2.30
2019,10,30,07,24,-2.30
2019,10,30,07,25,-2.30
2019,10,30,07,26,-2.30
2019,10,30,07,27,-2.30
2019,10,30,07,28,-2.30
2019,10,30,07,29,-2.30
2019,10,30,07,30,-2.30
2019,10,30,07,31,-2.30
2019,10,30,07,32,-2.30
2019,10,30,07,33,-2.30
2019,10,30,07,34,-2.20
2019,10,30,07,35,-2.20
2019,10,30,07,36,-2.20
2019,10,30,07,37,-2.20
2019,10,30,07,38,-2.20
2019,10,30,07,39,-2.30
2019,10,30,07,40,-2.30
2019,10,30,07,41,-2.30
2019,10,30,07,42,-2.30
2019,10,30,07,43,-2.40
2019,10,30,07,44,-2.40
2019,10,30,07,45,-2.40
2019,10,30,07,46,-2.40
2019,10,30,07,47,-2.40
2019,10,30,07,48,-2.40
2019,10,30,07,49,-2.40
2019,10,30,07,50,-2.40
2019,10,30,07,51,-2.40
2019,10,30,07,52,-2.40
2019,10,30,07,53,-2.40
2019,10,30,07,54,-2.40
2019,10,30,07,55,-2.40
2019,10,30,07,56,-2.40
2019,10,30,07,57,-2.40
2019,10,30,07,58,-2.40
2019,10,30,07,59,-2.40
2019,10,30,08,00,-2.40
2019,10,30,08,01,-2.40
2019,10,30,08,02,-2.40
2019,10,30,08,03,-2.40
2019,10,30,08,04,-2.40
2019,10,30,08,05,-2.30
2019,10,30,08,06,-2.30
2019,10,30,08,07,-2.30
2019,10,30,08,08,-2.30
2019,10,30,08,09,-2.30
2019,10,30,08,10,-2.30
2019,10,30,08,11,-2.20
2019,10,30,08,12,-2.10
2019,10,30,08,13,-2.10
2019,10,30,08,14,-2.10
2019,10,30,08,15,-2.10
2019,10,30,08,16,-2.00
2019,10,30,08,17,-2.00
2019,10,30,08,18,-2.00
2019,10,30,08,19,-2.00
2019,10,30,08,20,-2.00
2019,10,30,08,21,-2.00
2019,10,30,08,22,-2.00
2019,10,30,08,23,-2.00
2019,10,30,08,24,-2.00
2019,10,30,08,25,-2.00
2019,10,30,08,26,-2.10
2019,10,30,08,27,-2.10
2019,10,30,08,28,-2.10
2019,10,30,08,29,-2.10
2019,10,30,08,30,-2.10
2019,10,30,08,31,-2.10
2019,10,30,08,32,-2.10
2019,10,30,08,33,-2.10
2019,10,30,08,34,-2.10
2019,10,30,08,35,-2.10
2019,10,30,08,36,-2.10
2019,10,30,08,37,-2.10
2019,10,30,08,38,-2.00
2019,10,30,08,39,-2.00
2019,10,30,08,40,-2.00
2019,10,30,08,41,-1.90
2019,10,30,08,42,-1.90
2019,10,30,08,43,-1.90
2019,10,30,08,44,-1.80
2019,10,30,08,45,-1.80
2019,10,30,08,46,-1.70
2019,10,30,08,47,-1.70
2019,10,30,08,48,-1.70
2019,10,30,08,49,-1.60
2019,10,30,08,50,-1.60
2019,10,30,08,51,-1.60
2019,10,30,08,52,-1.60
2019,10,30,08,53,-1.60
2019,10,30,08,54,-1.50
2019,10,30,08,55,-1.50
2019,10,30,08,56,-1.50
2019,10,30,08,57,-1.40
2019,10,30,08,58,-1.30
2019,10,30,08,59,-1.20
2019,10,30,09,00,-1.00
2019,10,30,09,01,-0.90
2019,10,30,09,02,-0.80
2019,10,30,09,03,-0.80
2019,10,30,09,04,-0.70
2019,10,30,09,05,-0.60
2019,10,30,09,06,-0.60
2019,10,30,09,07,-0.50
2019,10,30,09,08,-0.50
2019,10,30,09,09,-0.40
2019,10,30,09,10,-0.30
2019,10,30,09,11,-0.20
2019,10,30,09,12,-0.10
2019,10,30,09,13,0.00
2019,10,30,09,14,0.20
2019,10,30,09,15,0.40
2019,10,30,09,16,0.50
2019,10,30,09,17,0.60
2019,10,30,09,18,0.70
2019,10,30,09,19,0.80
2019,10,30,09,20,0.90
2019,10,30,09,21,1.00
2019,10,30,09,22,1.10
2019,10,30,09,23,1.20
2019,10,30,09,24,1.30
2019,10,30,09,25,1.40
2019,10,30,09,26,1.60
2019,10,30,09,27,1.80
2019,10,30,09,28,2.00
2019,10,30,09,29,2.20
2019,10,30,09,30,2.30
2019,10,30,09,31,2.50
2019,10,30,09,32,2.60
2019,10,30,09,33,2.70
2019,10,30,09,34,2.80
2019,10,30,09,35,3.00
2019,10,30,09,36,3.10
2019,10,30,09,37,3.20
2019,10,30,09,38,3.30
2019,10,30,09,39,3.40
2019,10,30,09,40,3.40
2019,10,30,09,41,3.50
2019,10,30,09,42,3.60
2019,10,30,09,43,3.70
2019,10,30,09,44,3.70
2019,10,30,09,45,3.80
2019,10,30,09,46,3.80
2019,10,30,09,47,3.90
2019,10,30,09,48,3.90
2019,10,30,09,49,3.90
2019,10,30,09,50,4.00
2019,10,30,09,51,4.00
2019,10,30,09,52,4.00
2019,10,30,09,53,4.00
2019,10,30,09,54,4.00
2019,10,30,09,55,4.00
2019,10,30,09,56,4.00
2019,10,30,09,57,4.10
2019,10,30,09,58,4.10
2019,10,30,09,59,4.10
2019,10,30,10,00,4.10
2019,10,30,10,01,4.10
2019,10,30,10,02,4.10
2019,10,30,10,03,4.10
2019,10,30,10,04,4.10
2019,10,30,10,05,4.10
2019,10,30,10,06,4.10
2019,10,30,10,07,4.10
2019,10,30,10,08,4.10
2019,10,30,10,09,4.20
2019,10,30,10,10,4.20
2019,10,30,10,11,4.30
2019,10,30,10,12,4.40
2019,10,30,10,13,4.50
2019,10,30,10,14,4.60
2019,10,30,10,15,4.70
2019,10,30,10,16,4.80
2019,10,30,10,17,4.90
2019,10,30,10,18,5.00
2019,10,30,10,19,5.10
2019,10,30,10,20,5.20
2019,10,30,10,21,5.30
2019,10,30,10,22,5.40
2019,10,30,10,23,5.50
2019,10,30,10,24,5.50
2019,10,30,10,25,5.60
2019,10,30,10,26,5.70
2019,10,30,10,27,5.70
2019,10,30,10,28,5.80
2019,10,30,10,29,5.80
2019,10,30,10,30,5.90
2019,10,30,10,31,5.90
2019,10,30,10,32,5.90
2019,10,30,10,33,6.00
2019,10,30,10,34,6.10
2019,10,30,10,35,6.10
2019,10,30,10,36,6.20
2019,10,30,10,37,6.20
2019,10,30,10,38,6.20
2019,10,30,10,39,6.30
2019,10,30,10,40,6.40
2019,10,30,10,41,6.40
2019,10,30,10,42,6.50
2019,10,30,10,43,6.50
2019,10,30,10,44,6.60
2019,10,30,10,45,6.60
2019,10,30,10,46,6.60
2019,10,30,10,47,6.70
2019,10,30,10,48,6.70
2019,10,30,10,49,6.80
2019,10,30,10,50,6.80
2019,10,30,10,51,6.80
2019,10,30,10,52,6.80
2019,10,30,10,53,6.80
2019,10,30,10,54,6.80
2019,10,30,10,55,6.80
2019,10,30,10,56,6.90
2019,10,30,10,57,6.90
2019,10,30,10,58,6.90
2019,10,30,10,59,7.00
2019,10,30,11,00,7.00
2019,10,30,11,01,7.10
2019,10,30,11,02,7.20
2019,10,30,11,03,7.20
2019,10,30,11,04,7.20
2019,10,30,11,05,7.20
2019,10,30,11,06,7.30
2019,10,30,11,07,7.30
2019,10,30,11,08,7.30
2019,10,30,11,09,7.30
2019,10,30,11,10,7.30
2019,10,30,11,11,7.40
2019,10,30,11,12,7.40
2019,10,30,11,13,7.40
2019,10,30,11,14,7.40
2019,10,30,11,15,7.50
2019,10,30,11,16,7.60
2019,10,30,11,17,7.60
2019,10,30,11,18,7.70
2019,10,30,11,19,7.70
2019,10,30,11,20,7.70
2019,10,30,11,21,7.80
2019,10,30,11,22,7.80
2019,10,30,11,23,7.80
2019,10,30,11,24,7.80
2019,10,30,11,25,7.70
2019,10,30,11,26,7.70
2019,10,30,11,27,7.70
2019,10,30,11,28,7.70
2019,10,30,11,29,7.70
2019,10,30,11,30,7.70
2019,10,30,11,31,7.70
2019,10,30,11,32,7.70
2019,10,30,11,33,7.70
2019,10,30,11,34,7.70
2019,10,30,11,35,7.70
2019,10,30,11,36,7.70
2019,10,30,11,37,7.70
2019,10,30,11,38,7.80
2019,10,30,11,39,7.80
2019,10,30,11,40,7.80
2019,10,30,11,41,7.80
2019,10,30,11,42,7.80
2019,10,30,11,43,7.90
2019,10,30,11,44,7.90
2019,10,30,11,45,7.90
2019,10,30,11,46,7.90
2019,10,30,11,47,7.90
2019,10,30,11,48,8.00
2019,10,30,11,49,8.00
2019,10,30,11,50,8.10
2019,10,30,11,51,8.10
2019,10,30,11,52,8.20
2019,10,30,11,53,8.30
2019,10,30,11,54,8.30
2019,10,30,11,55,8.40
2019,10,30,11,56,8.40
2019,10,30,11,57,8.50
2019,10,30,11,58,8.50
2019,10,30,11,59,8.60
2019,10,30,12,00,8.60
2019,10,30,12,01,8.60
2019,10,30,12,02,8.60
2019,10,30,12,03,8.60
2019,10,30,12,04,8.60
2019,10,30,12,05,8.60
2019,10,30,12,06,8.60
2019,10,30,12,07,8.60
2019,10,30,12,08,8.60
2019,10,30,12,09,8.60
2019,10,30,12,10,8.60
2019,10,30,12,11,8.60
2019,10,30,12,12,8.60
2019,10,30,12,13,8.60
2019,10,30,12,14,8.70
2019,10,30,12,15,8.70
2019,10,30,12,16,8.80
2019,10,30,12,17,8.90
2019,10,30,12,18,9.00
2019,10,30,12,19,9.00
2019,10,30,12,20,9.00
2019,10,30,12,21,9.00
2019,10,30,12,22,9.00
2019,10,30,12,23,9.00
2019,10,30,12,24,9.10
2019,10,30,12,25,9.20
2019,10,30,12,26,9.20
2019,10,30,12,27,9.20
2019,10,30,12,28,9.30
2019,10,30,12,29,9.30
2019,10,30,12,30,9.30
2019,10,30,12,31,9.30
2019,10,30,12,32,9.30
2019,10,30,12,33,9.20
2019,10,30,12,34,9.20
2019,10,30,12,35,9.20
2019,10,30,12,36,9.20
2019,10,30,12,37,9.20
2019,10,30,12,38,9.10
2019,10,30,12,39,9.10
2019,10,30,12,40,9.10
2019,10,30,12,41,9.10
2019,10,30,12,42,9.10
2019,10,30,12,43,9.10
2019,10,30,12,44,9.10
2019,10,30,12,45,9.20
2019,10,30,12,46,9.20
2019,10,30,12,47,9.20
2019,10,30,12,48,9.30
2019,10,30,12,49,9.30
2019,10,30,12,50,9.40
2019,10,30,12,51,9.40
2019,10,30,12,52,9.50
2019,10,30,12,53,9.50
2019,10,30,12,54,9.50
2019,10,30,12,55,9.50
2019,10,30,12,56,9.40
2019,10,30,12,57,9.40
2019,10,30,12,58,9.40
2019,10,30,12,59,9.30
2019,10,30,13,00,9.30
2019,10,30,13,01,9.30
2019,10,30,13,02,9.30
2019,10,30,13,03,9.30
2019,10,30,13,04,9.30
2019,10,30,13,05,9.30
2019,10,30,13,06,9.40
2019,10,30,13,07,9.40
2019,10,30,13,08,9.40
2019,10,30,13,09,9.40
2019,10,30,13,10,9.40
2019,10,30,13,11,9.40
2019,10,30,13,12,9.30
2019,10,30,13,13,9.30
2019,10,30,13,14,9.30
2019,10,30,13,15,9.20
2019,10,30,13,16,9.20
2019,10,30,13,17,9.10
2019,10,30,13,18,9.10
2019,10,30,13,19,9.10
2019,10,30,13,20,9.10
2019,10,30,13,21,9.10
2019,10,30,13,22,9.10
2019,10,30,13,23,9.10
2019,10,30,13,24,9.10
2019,10,30,13,25,9.10
2019,10,30,13,26,9.00
2019,10,30,13,27,9.00
2019,10,30,13,28,9.00
2019,10,30,13,29,9.00
2019,10,30,13,30,9.00
2019,10,30,13,31,9.00
2019,10,30,13,32,9.00
2019,10,30,13,33,9.00
2019,10,30,13,34,9.00
2019,10,30,13,35,9.00
2019,10,30,13,36,9.00
2019,10,30,13,37,9.00
2019,10,30,13,38,9.00
2019,10,30,13,39,9.00
2019,10,30,13,40,9.00
2019,10,30,13,41,9.00
2019,10,30,13,42,9.00
2019,10,30,13,43,9.00
2019,10,30,13,44,9.00
2019,10,30,13,45,9.00
2019,10,30,13,46,9.10
2019,10,30,13,47,9.10
2019,10,30,13,48,9.10
2019,10,30,13,49,9.10
2019,10,30,13,50,9.00
2019,10,30,13,51,9.00
2019,10,30,13,52,9.00
2019,10,30,13,53,8.90
2019,10,30,13,54,8.90
2019,10,30,13,55,8.90
2019,10,30,13,56,8.80
2019,10,30,13,57,8.80
2019,10,30,13,58,8.80
2019,10,30,13,59,8.80
2019,10,30,14,00,8.80
2019,10,30,14,01,8.70
2019,10,30,14,02,8.70
2019,10,30,14,03,8.70
2019,10,30,14,04,8.70
2019,10,30,14,05,8.70
2019,10,30,14,06,8.60
2019,10,30,14,07,8.60
2019,10,30,14,08,8.60
2019,10,30,14,09,8.50
2019,10,30,14,10,8.50
2019,10,30,14,11,8.40
2019,10,30,14,12,8.40
2019,10,30,14,13,8.30
2019,10,30,14,14,8.30
2019,10,30,14,15,8.30
2019,10,30,14,16,8.30
2019,10,30,14,17,8.30
2019,10,30,14,18,8.20
2019,10,30,14,19,8.20
2019,10,30,14,20,8.20
2019,10,30,14,21,8.20
2019,10,30,14,22,8.20
2019,10,30,14,23,8.20
2019,10,30,14,24,8.20
2019,10,30,14,25,8.20
2019,10,30,14,26,8.20
2019,10,30,14,27,8.20
2019,10,30,14,28,8.20
2019,10,30,14,29,8.20
2019,10,30,14,30,8.20
2019,10,30,14,31,8.20
2019,10,30,14,32,8.20
2019,10,30,14,33,8.20
2019,10,30,14,34,8.20
2019,10,30,14,35,8.20
2019,10,30,14,36,8.20
2019,10,30,14,37,8.20
2019,10,30,14,38,8.20
2019,10,30,14,39,8.30
2019,10,30,14,40,8.30
2019,10,30,14,41,8.30
2019,10,30,14,42,8.30
2019,10,30,14,43,8.30
2019,10,30,14,44,8.30
2019,10,30,14,45,8.30
2019,10,30,14,46,8.30
2019,10,30,14,47,8.30
2019,10,30,14,48,8.30
2019,10,30,14,49,8.30
2019,10,30,14,50,8.30
2019,10,30,14,51,8.30
2019,10,30,14,52,8.30
2019,10,30,14,53,8.30
2019,10,30,14,54,8.30
2019,10,30,14,55,8.20
2019,10,30,14,56,8.20
2019,10,30,14,57,8.20
2019,10,30,14,58,8.20
2019,10,30,14,59,8.20
2019,10,30,15,00,8.20
2019,10,30,15,01,8.20
2019,10,30,15,02,8.10
2019,10,30,15,03,8.10
2019,10,30,15,04,8.10
2019,10,30,15,05,8.10
2019,10,30,15,06,8.10
2019,10,30,15,07,8.00
2019,10,30,15,08,8.00
2019,10,30,15,09,8.00
2019,10,30,15,10,8.00
2019,10,30,15,11,8.00
2019,10,30,15,12,7.90
2019,10,30,15,13,7.90
2019,10,30,15,14,7.90
2019,10,30,15,15,7.90
2019,10,30,15,16,7.90
2019,10,30,15,17,7.90
2019,10,30,15,18,7.90
2019,10,30,15,19,7.90
2019,10,30,15,20,7.90
2019,10,30,15,21,7.90
2019,10,30,15,22,7.80
2019,10,30,15,23,7.80
2019,10,30,15,24,7.80
2019,10,30,15,25,7.80
2019,10,30,15,26,7.80
2019,10,30,15,27,7.80
2019,10,30,15,28,7.80
2019,10,30,15,29,7.80
2019,10,30,15,30,7.70
2019,10,30,15,31,7.70
2019,10,30,15,32,7.70
2019,10,30,15,33,7.70
2019,10,30,15,34,7.60
2019,10,30,15,35,7.60
2019,10,30,15,36,7.60
2019,10,30,15,37,7.60
2019,10,30,15,38,7.60
2019,10,30,15,39,7.50
2019,10,30,15,40,7.50
2019,10,30,15,41,7.50
2019,10,30,15,42,7.50
2019,10,30,15,43,7.40
2019,10,30,15,44,7.40
2019,10,30,15,45,7.40
2019,10,30,15,46,7.40
2019,10,30,15,47,7.30
2019,10,30,15,48,7.30
2019,10,30,15,49,7.30
2019,10,30,15,50,7.30
2019,10,30,15,51,7.30
2019,10,30,15,52,7.30
2019,10,30,15,53,7.30
2019,10,30,15,54,7.20
2019,10,30,15,55,7.20
2019,10,30,15,56,7.20
2019,10,30,15,57,7.20
2019,10,30,15,58,7.20
2019,10,30,15,59,7.20
2019,10,30,16,00,7.20
2019,10,30,16,01,7.20
2019,10,30,16,02,7.20
2019,10,30,16,03,7.20
2019,10,30,16,04,7.20
2019,10,30,16,05,7.20
2019,10,30,16,06,7.20
2019,10,30,16,07,7.20
2019,10,30,16,08,7.20
2019,10,30,16,09,7.20
2019,10,30,16,10,7.20
2019,10,30,16,11,7.20
2019,10,30,16,12,7.10
2019,10,30,16,13,7.10
2019,10,30,16,14,7.10
2019,10,30,16,15,7.10
2019,10,30,16,16,7.10
2019,10,30,16,17,7.10
2019,10,30,16,18,7.10
2019,10,30,16,19,7.10
2019,10,30,16,20,7.10
2019,10,30,16,21,7.20
2019,10,30,16,22,7.20
2019,10,30,16,23,7.20
2019,10,30,16,24,7.20
2019,10,30,16,25,7.20
2019,10,30,16,26,7.20
2019,10,30,16,27,7.20
2019,10,30,16,28,7.20
2019,10,30,16,29,7.20
2019,10,30,16,30,7.20
2019,10,30,16,31,7.20
2019,10,30,16,32,7.20
2019,10,30,16,33,7.20
2019,10,30,16,34,7.20
2019,10,30,16,35,7.20
2019,10,30,16,36,7.30
2019,10,30,16,37,7.30
2019,10,30,16,38,7.30
2019,10,30,16,39,7.20
2019,10,30,16,40,7.20
2019,10,30,16,41,7.20
2019,10,30,16,42,7.20
2019,10,30,16,43,7.30
2019,10,30,16,44,7.30
2019,10,30,16,45,7.30
2019,10,30,16,46,7.30
2019,10,30,16,47,7.30
2019,10,30,16,48,7.30
2019,10,30,16,49,7.30
2019,10,30,16,50,7.30
2019,10,30,16,51,7.30
2019,10,30,16,52,7.30
2019,10,30,16,53,7.30
2019,10,30,16,54,7.30
2019,10,30,16,55,7.30
2019,10,30,16,56,7.30
2019,10,30,16,57,7.30
2019,10,30,16,58,7.30
2019,10,30,16,59,7.30
2019,10,30,17,00,7.20
2019,10,30,17,01,7.20
2019,10,30,17,02,7.20
2019,10,30,17,03,7.20
2019,10,30,17,04,7.20
2019,10,30,17,05,7.20
2019,10,30,17,06,7.20
2019,10,30,17,07,7.20
2019,10,30,17,08,7.20
2019,10,30,17,09,7.20
2019,10,30,17,10,7.20
2019,10,30,17,11,7.10
2019,10,30,17,12,7.10
2019,10,30,17,13,7.10
2019,10,30,17,14,7.10
2019,10,30,17,15,7.10
2019,10,30,17,16,7.10
2019,10,30,17,17,7.00
2019,10,30,17,18,7.00
2019,10,30,17,19,7.00
2019,10,30,17,20,6.90
2019,10,30,17,21,6.90
2019,10,30,17,22,6.90
2019,10,30,17,23,6.90
2019,10,30,17,24,6.80
2019,10,30,17,25,6.80
2019,10,30,17,26,6.80
2019,10,30,17,27,6.80
2019,10,30,17,28,6.70
2019,10,30,17,29,6.70
2019,10,30,17,30,6.70
2019,10,30,17,31,6.70
2019,10,30,17,32,6.60
2019,10,30,17,33,6.60
2019,10,30,17,34,6.60
2019,10,30,17,35,6.60
2019,10,30,17,36,6.60
2019,10,30,17,37,6.60
2019,10,30,17,38,6.60
2019,10,30,17,39,6.60
2019,10,30,17,40,6.50
2019,10,30,17,41,6.50
2019,10,30,17,42,6.50
2019,10,30,17,43,6.50